• In Portugal
  • List of Countries
  • For 7 days
  • Water Temperature
  • Satellite Maps
  • Weather Map
  • Weather Widgets
  • user-avatar
    Login

    Hourly Weather Kipungo

    Today, 23 October, Tuesday

    Time Temperature Precipitation Wind Pressure Humidity
    00:00 +23°C° 0.4 mm 1 mps 654 mmHg 71%
    01:00 +23°C° 0 mm 2 mps 654 mmHg 77%
    02:00 +21°C° 0.7 mm 2 mps 654 mmHg 78%
    03:00 +21°C° 0.7 mm 3 mps 654 mmHg 78%
    04:00 +21°C° 0.7 mm 3 mps 654 mmHg 78%
    05:00 +21°C° 0.1 mm 3 mps 654 mmHg 77%
    06:00 +21°C° 0.1 mm 3 mps 655 mmHg 75%
    07:00 +22°C° 0 mm 3 mps 655 mmHg 71%
    08:00 +24°C° 0.1 mm 3 mps 656 mmHg 64%
    09:00 +26°C° 0.1 mm 3 mps 656 mmHg 57%
    10:00 +28°C° 0.1 mm 3 mps 656 mmHg 50%
    11:00 +29°C° 0.3 mm 3 mps 656 mmHg 46%
    12:00 +30°C° 0.3 mm 3 mps 655 mmHg 43%
    13:00 +31°C° 0.3 mm 2 mps 655 mmHg 39%
    14:00 +30°C° 0.9 mm 2 mps 655 mmHg 42%
    15:00 +29°C° 0.9 mm 2 mps 654 mmHg 46%
    16:00 +28°C° 0.9 mm 2 mps 654 mmHg 49%
    17:00 +27°C° 1 mm 2 mps 654 mmHg 56%
    18:00 +25°C° 1 mm 2 mps 654 mmHg 62%
    19:00 +24°C° 1 mm 2 mps 654 mmHg 69%
    20:00 +23°C° 1 mm 2 mps 655 mmHg 71%
    21:00 +23°C° 1 mm 2 mps 655 mmHg 73%
    22:00 +23°C° 1 mm 1 mps 655 mmHg 75%
    23:00 +22°C° 0.3 mm 1 mps 655 mmHg 76%

    Tomorrow, 24 October, Wednesday

    Time Temperature Precipitation Wind Pressure Humidity
    00:00 +22°C° 0.3 mm 1 mps 655 mmHg 78%
    01:00 +22°C° 0.3 mm 1 mps 655 mmHg 80%
    02:00 +21°C° 0.1 mm 1 mps 654 mmHg 82%
    03:00 +21°C° 0.1 mm 1 mps 654 mmHg 83%
    04:00 +20°C° 0.1 mm 1 mps 653 mmHg 85%
    05:00 +21°C° 0 mm 1 mps 654 mmHg 81%
    06:00 +22°C° 0 mm 1 mps 654 mmHg 78%
    07:00 +21°C° 0 mm 2 mps 655 mmHg 74%
    08:00 +25°C° 0.2 mm 2 mps 655 mmHg 65%
    09:00 +27°C° 0.2 mm 2 mps 655 mmHg 56%
    10:00 +29°C° 0.2 mm 2 mps 656 mmHg 47%
    11:00 +29°C° 1.5 mm 2 mps 655 mmHg 48%
    12:00 +29°C° 1.5 mm 1 mps 655 mmHg 48%
    13:00 +29°C° 1.5 mm 1 mps 655 mmHg 49%
    14:00 +28°C° 3.1 mm 1 mps 654 mmHg 55%
    15:00 +26°C° 3.1 mm 2 mps 653 mmHg 61%
    16:00 +25°C° 3.1 mm 2 mps 653 mmHg 67%
    17:00 +24°C° 3.1 mm 2 mps 653 mmHg 71%
    18:00 +23°C° 3.1 mm 2 mps 654 mmHg 76%
    19:00 +21°C° 3.1 mm 2 mps 654 mmHg 80%
    20:00 +21°C° 1.8 mm 2 mps 654 mmHg 82%
    21:00 +21°C° 1.8 mm 2 mps 655 mmHg 83%
    22:00 +20°C° 1.8 mm 2 mps 655 mmHg 84%
    23:00 +20°C° 1.7 mm 2 mps 655 mmHg 85%

    Day after tomorrow, 25 October, Thursday

    Time Temperature Precipitation Wind Pressure Humidity
    00:00 +20°C° 1.7 mm 2 mps 654 mmHg 85%
    01:00 +20°C° 1.7 mm 2 mps 654 mmHg 86%
    02:00 +19°C° 1.1 mm 2 mps 654 mmHg 87%
    03:00 +19°C° 1.1 mm 2 mps 653 mmHg 88%
    04:00 +19°C° 1.1 mm 2 mps 653 mmHg 89%
    05:00 +19°C° 0.5 mm 2 mps 653 mmHg 87%
    06:00 +19°C° 0.5 mm 2 mps 654 mmHg 86%
    07:00 +19°C° 0.5 mm 2 mps 654 mmHg 85%
    08:00 +20°C° 0.2 mm 3 mps 654 mmHg 81%
    09:00 +21°C° 0.2 mm 3 mps 655 mmHg 76%
    10:00 +22°C° 0.2 mm 4 mps 655 mmHg 71%
    11:00 +24°C° 0.4 mm 3 mps 654 mmHg 67%
    12:00 +25°C° 0.4 mm 3 mps 654 mmHg 63%
    13:00 +26°C° 0.4 mm 3 mps 654 mmHg 58%
    14:00 +26°C° 1.5 mm 2 mps 653 mmHg 60%
    15:00 +26°C° 1.5 mm 2 mps 653 mmHg 62%
    16:00 +25°C° 1.5 mm 2 mps 652 mmHg 63%
    17:00 +24°C° 1.8 mm 2 mps 653 mmHg 69%
    18:00 +23°C° 1.8 mm 2 mps 653 mmHg 74%
    19:00 +21°C° 1.8 mm 2 mps 654 mmHg 79%
    20:00 +21°C° 0.8 mm 2 mps 654 mmHg 81%
    21:00 +20°C° 0.8 mm 2 mps 655 mmHg 83%
    22:00 +20°C° 0.8 mm 2 mps 655 mmHg 84%
    23:00 +20°C° 0.3 mm 2 mps 655 mmHg 85%

    26 October, Friday

    Time Temperature Precipitation Wind Pressure Humidity
    00:00 +20°C° 0.3 mm 2 mps 654 mmHg 86%
    01:00 +20°C° 0.3 mm 1 mps 654 mmHg 87%
    02:00 +20°C° 0.1 mm 1 mps 654 mmHg 87%
    03:00 +20°C° 0.1 mm 1 mps 653 mmHg 87%
    04:00 +20°C° 0.1 mm 1 mps 653 mmHg 87%
    05:00 +20°C° 0 mm 1 mps 654 mmHg 84%
    06:00 +20°C° 0 mm 2 mps 654 mmHg 81%
    07:00 +20°C° 0 mm 2 mps 655 mmHg 78%
    08:00 +23°C° 0.1 mm 2 mps 655 mmHg 72%
    09:00 +24°C° 0.1 mm 3 mps 655 mmHg 66%
    10:00 +25°C° 0.1 mm 3 mps 656 mmHg 60%
    11:00 +26°C° 0.4 mm 3 mps 656 mmHg 54%
    12:00 +28°C° 0.4 mm 3 mps 655 mmHg 49%
    13:00 +29°C° 0.4 mm 3 mps 655 mmHg 43%
    14:00 +28°C° 0.4 mm 3 mps 655 mmHg 46%
    15:00 +27°C° 0.4 mm 3 mps 654 mmHg 50%
    16:00 +26°C° 0.4 mm 2 mps 654 mmHg 53%
    17:00 +25°C° 0.7 mm 2 mps 654 mmHg 58%
    18:00 +24°C° 0.7 mm 2 mps 655 mmHg 63%
    19:00 +23°C° 0.7 mm 2 mps 655 mmHg 68%
    20:00 +23°C° 0.2 mm 1 mps 655 mmHg 70%
    21:00 +22°C° 0.2 mm 1 mps 656 mmHg 72%
    22:00 +22°C° 0.2 mm 1 mps 656 mmHg 74%
    23:00 +22°C° 0.5 mm 1 mps 655 mmHg 76%

    27 October, Saturday

    Time Temperature Precipitation Wind Pressure Humidity
    00:00 +21°C° 0.5 mm 1 mps 655 mmHg 77%
    01:00 +21°C° 0.5 mm 1 mps 654 mmHg 79%
    02:00 +21°C° 0 mm 1 mps 654 mmHg 79%
    03:00 +18°C° 0 mm 0 mps 654 mmHg 78%
    04:00 +18°C° 0 mm 0 mps 654 mmHg 78%
    05:00 +19°C° 0 mm 0 mps 654 mmHg 75%
    06:00 +22°C° 0 mm 1 mps 655 mmHg 72%
    07:00 +22°C° 0 mm 1 mps 656 mmHg 69%
    08:00 +25°C° 0 mm 1 mps 656 mmHg 61%
    09:00 +27°C° 0 mm 2 mps 656 mmHg 52%
    10:00 +29°C° 0 mm 2 mps 657 mmHg 44%
    11:00 +31°C° 0 mm 2 mps 656 mmHg 40%
    12:00 +32°C° 0 mm 2 mps 656 mmHg 36%
    13:00 +33°C° 0 mm 1 mps 655 mmHg 32%
    14:00 +32°C° 0.1 mm 1 mps 655 mmHg 34%
    15:00 +32°C° 0.1 mm 1 mps 654 mmHg 36%
    16:00 +31°C° 0.1 mm 1 mps 654 mmHg 38%
    17:00 +29°C° 1 mm 2 mps 654 mmHg 46%
    18:00 +27°C° 1 mm 3 mps 654 mmHg 53%
    19:00 +25°C° 1 mm 3 mps 654 mmHg 60%
    20:00 +24°C° 1.6 mm 3 mps 654 mmHg 66%
    21:00 +23°C° 1.6 mm 2 mps 654 mmHg 72%
    22:00 +21°C° 1.6 mm 2 mps 655 mmHg 78%
    23:00 +21°C° 0.8 mm 2 mps 654 mmHg 79%

    28 October, Sunday

    Time Temperature Precipitation Wind Pressure Humidity
    00:00 +21°C° 0.8 mm 2 mps 654 mmHg 80%
    01:00 +20°C° 0.8 mm 2 mps 654 mmHg 81%
    02:00 +21°C° 0.2 mm 2 mps 653 mmHg 79%
    03:00 +22°C° 0.2 mm 1 mps 653 mmHg 77%
    04:00 +22°C° 0.2 mm 1 mps 653 mmHg 75%
    05:00 +22°C° 0.1 mm 1 mps 654 mmHg 75%
    06:00 +22°C° 0.1 mm 1 mps 654 mmHg 75%
    07:00 +22°C° 0.1 mm 1 mps 654 mmHg 76%
    08:00 +24°C° 0.1 mm 1 mps 655 mmHg 69%
    09:00 +26°C° 0.1 mm 1 mps 655 mmHg 63%
    10:00 +27°C° 0.1 mm 1 mps 655 mmHg 57%
    11:00 +29°C° 0 mm 2 mps 655 mmHg 50%
    12:00 +30°C° 0 mm 2 mps 655 mmHg 44%
    13:00 +32°C° 0 mm 2 mps 654 mmHg 37%
    14:00 +32°C° 0.2 mm 2 mps 654 mmHg 38%
    15:00 +31°C° 0.2 mm 2 mps 653 mmHg 38%
    16:00 +31°C° 0.2 mm 2 mps 653 mmHg 39%
    17:00 +29°C° 0.3 mm 2 mps 653 mmHg 46%
    18:00 +27°C° 0.3 mm 3 mps 653 mmHg 53%
    19:00 +25°C° 0.3 mm 3 mps 653 mmHg 60%
    20:00 +25°C° 0.2 mm 3 mps 653 mmHg 63%
    21:00 +24°C° 0.2 mm 3 mps 653 mmHg 66%
    22:00 +22°C° 0.2 mm 3 mps 654 mmHg 70%
    23:00 +22°C° 0 mm 3 mps 653 mmHg 71%

    29 October, Monday

    Time Temperature Precipitation Wind Pressure Humidity
    00:00 +23°C° 0 mm 2 mps 653 mmHg 71%
    01:00 +23°C° 0 mm 2 mps 653 mmHg 72%
    02:00 +23°C° 0 mm 1 mps 653 mmHg 73%
    03:00 +22°C° 0 mm 1 mps 653 mmHg 74%
    04:00 +22°C° 0 mm 1 mps 653 mmHg 75%
    05:00 +23°C° 0 mm 1 mps 653 mmHg 72%
    06:00 +23°C° 0 mm 1 mps 654 mmHg 68%
    07:00 +24°C° 0 mm 1 mps 655 mmHg 65%
    08:00 +27°C° 0 mm 1 mps 655 mmHg 55%
    09:00 +29°C° 0 mm 2 mps 655 mmHg 46%
    10:00 +31°C° 0 mm 3 mps 656 mmHg 36%
    11:00 +32°C° 0 mm 2 mps 655 mmHg 32%
    12:00 +35°C° 0 mm 2 mps 655 mmHg 29%
    13:00 +36°C° 0 mm 2 mps 654 mmHg 26%
    14:00 +35°C° 0 mm 2 mps 654 mmHg 27%
    15:00 +35°C° 0 mm 2 mps 653 mmHg 29%
    16:00 +34°C° 0 mm 2 mps 653 mmHg 30%
    17:00 +32°C° 0 mm 2 mps 653 mmHg 33%
    18:00 +30°C° 0 mm 2 mps 653 mmHg 37%
    19:00 +29°C° 0 mm 3 mps 653 mmHg 40%
    20:00 +28°C° 0 mm 3 mps 653 mmHg 44%
    21:00 +27°C° 0 mm 3 mps 653 mmHg 47%
    22:00 +25°C° 0 mm 3 mps 653 mmHg 51%
    23:00 +25°C° 0 mm 3 mps 653 mmHg 54%
    Show more